Theta_e
318 317 316 316 315 315 316 316 316 316 316 317 317 317 318 318 319 320 320 321 321 321 322 322 323 325 319 313 311 319 340 332 324 320 317 314 312 311 308 308 309 308 309 309 310 309 309
318 318 317 316 316 316 316 316 316 316 316 317 316 316 317 318 318 319 320 319 319 320 321 322 324 323 317 309 319 321 321 321 320 319 316 316 313 313 311 309 308 310 309 309 309 310 310
318 317 317 317 316 316 316 316 316 316 316 316 316 316 316 317 318 319 319 319 318 319 322 324 326 320 317 313 321 322 321 319 320 318 315 317 317 313 313 310 312 310 305 308 309 310 308
318 317 317 316 316 315 315 315 315 315 316 316 316 316 316 317 317 319 319 319 319 321 323 326 328 321 313 320 323 321 321 319 320 320 318 318 318 315 312 313 310 307 307 303 308 309 309
317 317 316 316 315 315 314 315 315 315 315 315 316 315 315 316 317 318 318 318 320 324 326 325 320 320 312 321 318 320 321 316 317 319 319 318 317 313 313 307 305 307 301 302 304 310 308
316 316 316 316 315 314 314 314 314 315 314 314 315 315 315 315 316 317 317 318 323 322 322 321 320 315 316 312 317 318 320 318 315 315 315 314 313 309 309 307 297 300 300 302 302 307 308
316 316 316 316 315 314 314 313 314 314 314 314 314 315 315 315 316 316 317 320 315 315 319 314 314 315 314 318 319 317 319 316 316 314 308 311 305 304 307 307 305 304 302 301 305 309 306
316 316 315 315 315 314 313 313 313 314 314 314 314 314 315 315 316 316 318 320 318 320 313 317 316 314 316 317 311 314 318 312 311 307 310 307 304 308 308 307 304 304 302 302 306 308 306
315 315 315 314 313 313 313 312 313 313 313 314 314 315 315 315 315 316 321 318 323 323 313 311 312 312 313 315 311 312 315 312 309 306 307 303 306 309 306 304 303 303 302 302 301 304 305
315 315 314 313 312 312 312 312 312 313 313 313 314 315 315 314 315 324 320 321 323 324 309 307 309 313 314 314 309 316 317 312 309 305 306 305 308 306 305 303 304 300 305 302 301 299 293
315 315 314 313 312 312 311 311 312 312 312 312 313 315 316 308 322 320 323 323 324 323 298 309 310 317 314 309 312 313 317 313 306 307 306 303 305 304 303 303 305 301 304 301 301 298 298
316 315 314 313 313 312 311 310 311 311 311 311 312 314 313 320 324 321 322 322 324 306 297 306 310 308 308 310 311 312 312 315 314 308 309 307 311 308 305 306 305 305 303 302 301 299 293
315 315 314 313 312 311 310 310 310 310 310 311 311 312 314 323 319 324 323 316 306 300 310 305 305 308 308 307 308 309 307 306 305 300 300 304 305 308 307 303 305 304 299 292 289 291 290
315 315 314 313 312 311 310 310 309 309 310 310 309 308 324 324 325 325 321 310 300 305 305 309 307 306 304 307 307 306 305 304 309 304 300 297 295 303 307 303 300 299 298 292 285 287 290
315 315 314 314 312 311 310 309 309 308 309 308 307 325 327 324 325 326 316 305 305 306 307 305 306 303 304 306 305 305 305 304 306 305 298 296 296 305 306 305 303 298 295 301 295 295 290
314 314 314 313 312 311 310 309 309 309 308 308 323 326 323 323 327 323 315 306 308 309 308 307 302 305 301 303 303 304 303 306 303 306 307 302 294 302 304 305 304 302 304 295 296 286 284
314 314 314 313 311 311 309 309 309 308 307 307 324 321 320 323 324 317 310 309 308 310 309 306 304 303 304 303 304 302 302 305 306 304 306 302 300 298 303 300 298 298 297 299 299 295 287
314 314 314 313 311 310 309 308 308 307 305 315 322 312 320 321 312 314 308 309 302 308 309 307 307 306 304 304 302 302 301 304 308 306 300 303 300 294 296 302 303 301 299 299 292 289 294
314 314 314 313 311 310 309 308 308 307 306 311 316 314 321 319 306 308 309 307 307 306 306 305 304 306 306 302 299 302 303 306 307 304 302 304 299 291 292 298 302 299 300 300 300 298 292
314 315 314 313 311 310 309 308 308 306 306 313 314 308 314 316 313 308 306 305 303 307 304 305 304 306 304 303 305 301 302 305 306 304 309 305 298 294 289 294 298 294 296 297 297 291 290
315 315 315 313 311 310 309 308 308 306 306 315 316 310 309 307 307 307 307 306 302 302 305 305 303 303 302 298 299 299 301 302 304 308 305 304 296 298 298 298 297 296 295 295 294 294 291
316 316 315 314 311 310 309 309 308 306 305 317 309 307 310 309 308 306 301 305 301 302 302 302 301 303 303 299 300 297 301 301 300 304 303 306 296 298 294 297 297 294 295 296 296 295 293
315 315 315 315 312 310 309 309 309 307 308 313 312 315 311 306 308 304 304 302 300 301 304 303 302 301 300 302 305 305 305 304 303 301 300 300 298 295 290 295 295 290 294 295 296 297 296
315 315 315 316 313 310 309 309 309 308 306 311 310 309 308 303 305 302 301 301 300 301 300 303 304 302 306 309 307 305 306 306 305 305 308 301 298 296 290 292 283 294 300 299 295 297 298
315 315 315 315 315 310 308 308 309 309 308 310 311 307 307 302 305 302 301 301 303 305 303 302 304 307 309 304 300 299 300 302 303 305 304 305 299 294 289 288 291 294 296 295 293 293 300
315 315 315 315 315 312 308 307 308 309 308 310 312 310 306 303 303 304 301 303 301 302 302 304 307 310 307 303 301 294 292 296 294 297 303 302 302 296 292 286 282 293 299 302 300 289 300
314 314 315 314 315 313 309 307 307 307 308 306 312 315 306 302 307 306 303 302 304 303 301 305 306 305 307 302 297 295 294 299 292 292 293 295 294 290 289 288 291 298 300 302 287 290 301
313 313 314 313 313 313 310 307 306 306 307 305 311 314 304 301 303 305 305 303 305 305 300 305 301 303 303 299 297 296 295 296 295 296 294 292 291 291 291 287 284 302 300 289 298 305 304
312 312 313 313 313 313 311 308 306 306 306 305 309 313 311 303 304 309 308 308 306 306 304 305 304 303 303 299 299 298 294 297 295 291 299 292 296 293 294 292 304 304 302 306 307 304 303
Wind_Speed
18 19 20 19 19 17 16 15 14 14 13 12 11 11 10 10 10 9 9 9 10 11 12 13 13 12 10 7 10 6 10 15 17 9 11 6 8 6 8 2 4 10 4 2 0 4 8
19 19 20 20 18 17 16 16 15 14 13 13 12 11 11 10 10 10 10 10 11 11 13 13 12 16 8 9 4 1 6 4 10 12 6 11 8 8 6 6 7 8 6 4 5 7 3
20 20 20 19 19 18 17 17 16 15 14 12 12 11 11 10 10 10 10 11 12 12 13 14 7 7 13 4 1 2 4 4 6 8 10 8 10 12 6 7 2 9 9 13 11 8 2
20 20 20 20 19 19 18 18 18 16 15 13 12 11 11 10 10 10 11 12 12 12 13 15 6 9 2 3 7 8 3 5 2 6 6 9 11 9 4 5 10 13 14 11 13 12 7
20 21 21 21 21 20 19 18 17 17 16 15 12 11 11 11 11 11 12 13 12 12 11 15 11 12 3 5 9 3 6 8 8 7 4 6 10 5 9 15 15 11 8 8 5 6 5
21 21 21 22 22 21 21 20 19 17 17 15 13 11 10 11 11 11 13 8 8 9 8 11 11 11 9 6 5 3 1 5 8 9 13 11 8 11 14 5 10 17 15 14 13 13 7
20 21 21 22 22 23 22 22 21 19 17 16 13 10 10 9 10 11 11 5 7 7 14 11 7 8 7 7 3 7 4 7 6 11 11 3 9 11 12 9 11 13 14 15 16 14 15
19 20 21 22 23 23 23 23 22 20 18 16 14 10 9 9 8 7 6 9 7 9 7 15 10 3 4 2 5 5 3 8 9 12 12 11 12 8 7 7 12 14 15 17 15 16 15
19 20 21 22 22 23 24 24 23 22 19 16 13 9 8 8 9 5 12 7 8 7 7 8 10 12 9 9 4 5 6 10 12 11 11 12 15 14 6 11 13 14 16 16 16 18 17
19 20 21 21 21 22 23 24 24 23 21 18 14 11 7 8 2 12 4 4 7 4 7 14 8 5 5 6 5 3 5 8 11 14 14 8 15 5 9 12 14 14 16 18 17 17 16
19 20 21 21 22 23 24 25 25 24 23 20 16 13 10 3 11 8 6 6 10 3 6 11 10 6 4 7 3 9 2 5 10 14 12 16 15 13 10 11 11 14 16 15 18 19 21
18 20 21 22 23 24 24 25 26 25 23 22 19 15 16 6 6 5 7 6 5 7 3 7 8 8 11 11 5 3 6 8 10 9 16 17 10 11 5 10 12 8 15 18 19 17 16
18 19 20 21 23 23 24 25 25 25 23 22 19 17 10 8 9 9 8 6 7 9 2 7 4 5 9 5 1 2 8 11 7 9 13 18 11 8 3 8 13 11 14 10 7 9 14
18 19 20 21 22 23 24 24 25 26 24 22 18 14 9 9 8 8 7 7 7 2 5 6 4 6 8 1 5 2 8 12 9 3 10 9 9 14 11 7 11 14 13 9 16 14 17
17 18 19 21 22 23 24 24 25 26 24 22 17 7 8 4 5 5 7 9 5 12 8 7 11 12 14 9 4 7 9 8 8 9 6 9 8 24 17 11 9 11 12 14 10 13 16
16 17 19 20 22 23 25 25 26 28 28 19 5 9 2 4 3 5 7 13 3 7 8 6 10 7 9 11 8 9 8 6 2 4 3 7 16 12 15 7 13 19 14 10 6 7 16
14 16 17 18 21 23 25 26 27 29 33 15 4 6 6 5 3 6 9 5 5 8 7 7 11 10 11 10 8 8 6 4 6 4 10 12 9 12 15 16 18 16 13 12 14 11 11
11 13 15 17 19 22 24 26 26 26 32 9 6 5 5 4 6 6 7 8 4 8 2 3 5 7 7 9 7 10 10 6 6 7 10 10 6 12 18 23 20 14 12 12 5 12 14
11 12 13 15 18 21 23 25 26 22 16 8 7 4 5 5 5 6 6 1 4 7 5 7 6 4 8 7 5 7 7 5 6 4 6 8 4 8 10 8 16 18 15 19 15 12 17
10 12 12 14 16 19 22 25 27 27 14 5 6 5 3 2 2 6 6 1 1 6 3 4 7 6 7 8 8 7 10 8 1 5 12 4 7 10 11 18 19 20 23 24 21 8 14
9 10 11 12 14 17 20 24 27 29 29 5 3 4 4 5 6 6 2 3 5 0 1 3 5 4 4 6 12 14 10 15 15 5 5 4 11 15 17 21 23 25 25 24 19 20 15
8 9 10 10 12 15 18 21 25 30 34 0 6 5 7 8 4 6 5 3 4 6 4 5 2 10 9 9 11 15 14 12 8 10 11 8 14 18 21 23 21 23 23 16 14 12 10
8 8 8 9 10 13 16 19 22 25 23 5 8 5 6 4 6 6 6 5 3 2 2 3 6 8 10 10 12 13 14 14 15 14 13 12 11 14 19 22 22 19 10 17 15 17 16
9 9 7 7 8 10 12 16 18 21 18 8 6 7 6 9 2 6 4 2 4 3 5 9 8 9 9 12 15 17 19 18 15 14 12 9 10 11 14 18 14 7 13 11 9 14 16
10 9 8 6 7 7 10 12 15 18 19 8 6 6 6 7 9 6 3 4 5 5 7 3 5 7 10 12 8 8 8 10 9 15 8 10 8 10 9 11 17 9 6 8 10 16 8
10 9 9 7 6 6 6 9 13 16 19 10 7 6 5 6 5 8 7 5 6 6 6 5 5 1 6 8 8 8 10 7 6 8 5 5 8 7 12 17 14 9 17 12 16 10 12
11 10 10 8 7 5 4 6 9 13 15 8 2 5 5 6 3 6 5 8 6 3 5 5 5 6 3 6 8 7 10 7 7 10 14 11 12 13 13 15 7 7 16 14 8 11 21
12 12 11 10 8 6 5 4 5 9 13 9 3 4 4 5 9 5 2 5 3 4 6 7 7 5 8 8 6 5 7 6 9 9 12 13 6 10 7 12 6 22 16 5 9 16 18
13 13 12 11 9 8 8 6 4 6 10 10 4 5 1 5 5 7 8 9 6 5 4 2 4 5 5 5 6 5 10 7 10 9 8 4 7 5 6 8 14 15 11 14 14 17 18
Wind_Direction
18 18 17 15 12 9 6 5 3 0 357 355 354 350 348 343 338 332 326 321 319 315 310 309 320 345 318 236 90 153 243 262 260 299 349 334 318 321 297 36 280 279 115 195 157 233 224
15 13 11 9 7 4 2 2 360 357 353 351 350 348 344 340 333 326 322 318 314 309 304 302 315 316 267 249 125 157 299 7 358 356 27 354 8 345 316 323 296 11 292 245 195 212 276
12 10 7 5 4 2 360 360 358 353 350 346 344 342 339 334 329 323 318 312 306 298 291 288 304 304 269 167 26 148 288 19 341 355 1 7 324 301 355 255 89 283 257 215 212 202 241
8 6 4 2 1 359 357 356 356 352 346 342 339 335 333 329 324 317 311 305 296 288 286 282 290 287 332 76 324 233 255 215 185 337 350 354 319 299 294 341 233 234 227 270 164 187 164
5 3 1 360 358 356 353 353 352 350 347 340 334 328 326 323 319 314 311 303 286 283 266 286 279 220 224 123 227 86 285 330 325 267 242 281 278 302 274 245 243 208 312 324 307 203 161
4 1 1 358 357 355 352 351 352 349 347 341 331 324 319 317 315 314 312 290 315 294 239 261 265 278 165 206 118 322 301 269 306 309 281 228 255 261 247 292 343 327 330 323 310 310 249
3 0 360 358 355 354 352 351 351 351 347 343 332 320 311 309 310 320 315 226 219 197 238 260 137 280 103 93 175 222 32 311 267 270 266 317 305 295 10 17 335 310 298 297 297 292 290
1 359 358 359 356 353 353 352 351 352 350 346 335 320 306 299 303 317 278 256 29 316 262 221 275 299 23 254 215 208 273 279 328 302 308 269 253 18 351 321 305 291 282 280 291 311 316
0 359 358 358 356 353 353 353 353 353 352 349 341 330 315 314 319 255 237 343 313 301 269 157 207 210 192 217 263 65 341 331 305 303 304 319 308 326 359 306 289 283 290 300 316 316 297
359 359 358 356 356 354 354 353 354 354 353 351 350 347 340 324 275 238 197 307 291 27 270 156 189 158 189 249 218 64 6 330 303 306 318 310 287 329 283 279 302 300 338 333 315 306 295
358 357 356 355 355 357 355 353 354 354 352 351 346 339 328 257 315 286 7 336 336 236 270 154 169 93 160 243 74 130 186 309 308 324 309 290 305 333 312 305 358 307 321 310 294 282 280
356 355 353 355 355 355 356 352 351 352 350 348 341 337 337 209 230 343 307 338 243 237 241 133 139 210 218 206 188 355 287 235 258 286 286 268 252 253 238 328 300 275 283 300 293 280 267
355 354 352 354 355 353 353 351 348 347 346 342 332 325 317 315 335 348 326 248 234 249 145 138 227 160 249 279 150 231 307 301 292 330 324 327 296 93 58 320 317 319 328 314 300 319 296
355 352 352 353 353 351 352 349 345 343 342 334 323 318 253 274 334 347 282 240 259 338 53 51 306 301 254 31 304 278 284 289 133 22 324 315 316 25 16 303 311 296 288 275 293 302 305
354 351 351 352 351 350 350 348 345 342 341 330 314 249 242 39 340 315 271 239 329 7 16 355 318 259 269 157 183 285 273 325 36 23 333 321 298 335 322 315 337 314 299 295 303 288 282
350 348 350 350 349 350 348 348 346 344 337 336 293 267 208 322 26 282 253 259 55 38 345 322 295 319 320 333 315 338 327 83 69 79 23 300 304 303 294 309 268 258 249 280 276 290 274
350 346 349 351 349 350 348 347 347 348 337 335 254 247 74 318 263 252 251 31 74 84 6 339 338 325 317 318 334 311 301 38 93 338 353 311 278 288 299 284 303 319 302 262 272 281 286
340 342 350 352 350 350 347 347 347 353 340 345 299 283 49 330 261 229 39 15 343 353 360 311 309 314 321 342 315 301 303 10 62 4 321 325 297 294 301 293 281 266 301 303 9 298 285
335 340 348 349 354 351 345 346 345 356 6 314 291 311 89 308 298 354 82 99 13 338 22 338 324 26 345 319 316 299 310 68 61 9 356 356 318 316 306 320 350 320 304 300 290 276 262
325 336 342 351 356 353 346 346 344 342 356 294 281 312 109 95 49 334 22 271 196 112 296 313 308 313 288 300 290 280 288 306 72 273 144 158 262 267 278 292 318 305 295 292 287 295 291
313 324 337 350 353 354 348 348 345 342 338 290 296 58 8 331 49 333 334 343 308 267 22 261 289 210 351 321 324 294 317 326 316 119 191 219 271 280 296 302 293 301 307 310 338 324 326
299 316 330 344 353 356 353 350 348 346 338 84 342 344 345 288 319 285 152 139 310 37 323 328 286 334 336 306 294 298 316 319 306 316 326 312 296 304 296 294 310 303 310 342 331 311 298
282 292 317 335 348 354 355 352 350 356 343 8 4 345 281 301 224 256 66 48 18 337 266 312 332 315 307 331 335 305 293 285 275 284 287 289 288 305 296 303 308 303 347 321 334 341 355
268 276 292 318 333 349 358 352 350 353 6 313 18 310 283 291 253 11 16 4 301 325 310 322 310 295 1 332 304 282 259 246 246 247 243 271 300 292 299 306 299 47 32 3 332 321 323
255 267 276 292 311 334 358 350 348 349 354 328 24 343 322 293 336 254 197 324 310 252 221 302 336 32 336 308 287 298 332 213 209 237 180 215 267 283 293 305 293 7 17 333 333 308 34
243 252 262 268 283 302 340 347 349 350 350 321 69 341 304 298 59 359 324 313 301 332 272 170 138 45 311 286 273 284 297 346 329 330 298 266 238 256 279 282 306 11 352 331 303 291 347
230 233 247 251 255 257 291 332 343 346 347 327 35 20 289 297 49 3 346 348 331 292 289 299 26 315 199 272 303 317 312 334 316 336 334 319 322 301 313 308 294 37 343 350 0 312 320
221 220 230 235 242 224 237 277 320 339 344 343 9 48 338 312 313 347 346 312 305 264 305 35 281 168 257 275 309 338 315 328 317 313 313 307 290 298 313 302 309 352 0 360 296 303 317
215 212 219 222 226 217 214 231 259 316 335 339 272 150 41 260 313 329 289 288 294 334 311 256 320 279 357 310 343 324 319 318 322 308 318 318 326 300 290 281 305 343 328 331 326 320 317